Weather History for Duluth Sky Harbor, MN

Change the Weather History Date:

Thursday, November 29, 2012

  Actual Average Record
Temperature  
Mean Temperature 28 °F -  
Max Temperature 32 °F 31 °F 55 °F (1951)
Min Temperature 24 °F 15 °F -16 °F (1976)
Degree Days  
Heating Degree Days 37    
Moisture  
Dew Point 26 °F    
Average Humidity 85    
Maximum Humidity 93    
Minimum Humidity 80    
Precipitation  
Precipitation 0.00 in - - ()
Sea Level Pressure  
Sea Level Pressure 30.19 in    
Wind  
Wind Speed 14 mph (ENE)    
Max Wind Speed 29 mph    
Max Gust Speed 36 mph    
Visibility 10 miles    
Events      
Averages and records for this station are not official NWS values.
T = Trace of Precipitation, MM = Missing Value Source: NWS Daily Summary

Daily Weather History Graph

Daily Weather History Graph

Search for Another Location

Airport:

Trip Planner

Search our weather history database for the weather conditions in past years. The results will help you decide how hot, cold, wet, or windy it might be!

Date:

Astronomy

Nov. 29, 2012 Rise Set
Actual Time 7:30 AM CST 4:22 PM CST
Civil Twilight 6:56 AM CST 4:57 PM CST
Nautical Twilight 6:18 AM CST 5:34 PM CST
Astronomical Twilight 5:41 AM CST 6:11 PM CST
Moon 5:25 PM CST (11/29) 8:17 AM CST (11/29)
Length of Visible Light 10h 01m
Length of Day
8h 52m
Full, 99% of the Moon is Illuminated
Nov 29
Full
Dec 6
Last Quarter
Dec 13
New
Dec 19
First Quarter
Dec 28
Full

Hourly Weather History & Observations

Time (CST) Temp. Windchill Dew Point Humidity Pressure Visibility Wind Dir Wind Speed Gust Speed Precip Events Conditions
12:14 AM 28.4 °F 23.3 °F 23.0 °F 80% 30.11 in 10.0 mi SSW 4.6 mph - N/A   Clear
12:33 AM 28.4 °F 23.3 °F 23.0 °F 80% 30.12 in 10.0 mi WSW 4.6 mph - N/A   Clear
12:53 AM 26.6 °F 21.2 °F 21.2 °F 80% 30.12 in 10.0 mi SSW 4.6 mph - N/A   Clear
1:14 AM 26.6 °F - 21.2 °F 80% 30.12 in 10.0 mi Calm Calm - N/A   Scattered Clouds
1:33 AM 26.6 °F 22.6 °F 21.2 °F 80% 30.12 in 10.0 mi SSW 3.5 mph - N/A   Clear
1:53 AM 26.6 °F 21.2 °F 21.2 °F 80% 30.12 in 10.0 mi South 4.6 mph - N/A   Clear
2:14 AM 24.8 °F 20.5 °F 21.2 °F 86% 30.12 in 10.0 mi South 3.5 mph - N/A   Clear
2:33 AM 26.6 °F - 21.2 °F 80% 30.12 in 10.0 mi Calm Calm - N/A   Clear
2:53 AM 26.6 °F - 21.2 °F 80% 30.12 in 10.0 mi Calm Calm - N/A   Clear
3:33 AM 26.6 °F - 21.2 °F 80% 30.12 in 10.0 mi Calm Calm - N/A   Clear
3:53 AM 30.2 °F 21.9 °F 26.6 °F 86% 30.12 in 10.0 mi NNE 9.2 mph - N/A   Clear
4:14 AM 30.2 °F 21.3 °F 26.6 °F 86% 30.13 in 10.0 mi NNE 10.4 mph - N/A   Scattered Clouds
4:33 AM 30.2 °F 20.8 °F 26.6 °F 86% 30.13 in 10.0 mi NE 11.5 mph - N/A   Scattered Clouds
4:53 AM 30.2 °F 20.2 °F 26.6 °F 86% 30.13 in 10.0 mi NE 12.7 mph - N/A   Scattered Clouds
5:14 AM 30.2 °F 19.3 °F 26.6 °F 86% 30.13 in 10.0 mi NNE 15.0 mph - N/A   Scattered Clouds
5:34 AM 30.2 °F 19.8 °F 26.6 °F 86% 30.16 in 10.0 mi NNE 13.8 mph - N/A   Scattered Clouds
5:53 AM 30.2 °F 19.3 °F 26.6 °F 86% 30.16 in 10.0 mi NNE 15.0 mph - N/A   Mostly Cloudy
6:14 AM 30.2 °F 18.5 °F 26.6 °F 86% 30.15 in 10.0 mi NE 17.3 mph - N/A   Overcast
6:33 AM 30.2 °F 17.8 °F 24.8 °F 80% 30.15 in 10.0 mi NNE 19.6 mph - N/A   Overcast
6:54 AM 30.2 °F 19.3 °F 24.8 °F 80% 30.16 in 10.0 mi NE 15.0 mph - N/A   Overcast
7:14 AM 30.2 °F 19.3 °F 24.8 °F 80% 30.16 in 10.0 mi NNE 15.0 mph - N/A   Overcast
7:33 AM 30.2 °F 18.9 °F 24.8 °F 80% 30.16 in 10.0 mi NE 16.1 mph - N/A   Overcast
7:54 AM 30.2 °F 19.3 °F 24.8 °F 80% 30.17 in 10.0 mi NNE 15.0 mph - N/A   Overcast
8:14 AM 30.2 °F 18.1 °F 26.6 °F 86% 30.18 in 10.0 mi NNE 18.4 mph - N/A   Overcast
8:33 AM 30.2 °F 17.8 °F 26.6 °F 86% 30.18 in 10.0 mi NNE 19.6 mph - N/A   Overcast
8:54 AM 32.0 °F 19.5 °F 26.6 °F 80% 30.19 in 10.0 mi ENE 21.9 mph 25.3 mph N/A   Overcast
9:14 AM 32.0 °F 19.8 °F 26.6 °F 80% 30.19 in 10.0 mi ENE 20.7 mph - N/A   Overcast
9:33 AM 32.0 °F 18.6 °F 26.6 °F 80% 30.19 in 10.0 mi ENE 25.3 mph - N/A   Overcast
10:13 AM 32.0 °F 18.6 °F 28.4 °F 87% 30.19 in 10.0 mi ENE 25.3 mph - N/A   Overcast
10:34 AM 30.2 °F 15.9 °F 26.6 °F 86% 30.20 in 10.0 mi ENE 26.5 mph - N/A   Overcast
10:54 AM 30.2 °F 16.5 °F 26.6 °F 86% 30.21 in 10.0 mi ENE 24.2 mph 28.8 mph N/A   Overcast
11:13 AM 30.2 °F 16.8 °F 26.6 °F 86% 30.21 in 10.0 mi ENE 23.0 mph - N/A   Overcast
11:34 AM 30.2 °F 17.1 °F 26.6 °F 86% 30.21 in 10.0 mi ENE 21.9 mph 27.6 mph N/A   Overcast
11:54 AM 30.2 °F 17.4 °F 26.6 °F 86% 30.21 in 10.0 mi East 20.7 mph - N/A   Overcast
12:13 PM 30.2 °F 16.5 °F 26.6 °F 86% 30.21 in 10.0 mi ENE 24.2 mph - N/A   Overcast
12:34 PM 30.2 °F 16.8 °F 26.6 °F 86% 30.20 in 10.0 mi ENE 23.0 mph - N/A   Overcast
12:53 PM 30.2 °F 16.5 °F 26.6 °F 86% 30.20 in 10.0 mi East 24.2 mph 27.6 mph N/A   Overcast
1:13 PM 30.2 °F 16.8 °F 26.6 °F 86% 30.20 in 10.0 mi ENE 23.0 mph - N/A   Overcast
1:34 PM 30.2 °F 16.5 °F 26.6 °F 86% 30.20 in 10.0 mi ENE 24.2 mph - N/A   Overcast
1:53 PM 30.2 °F 16.2 °F 26.6 °F 86% 30.20 in 10.0 mi ENE 25.3 mph 29.9 mph N/A   Overcast
2:13 PM 30.2 °F 16.2 °F 26.6 °F 86% 30.21 in 10.0 mi ENE 25.3 mph 32.2 mph N/A   Overcast
2:34 PM 28.4 °F 14.1 °F 26.6 °F 93% 30.21 in 10.0 mi NE 24.2 mph 28.8 mph N/A   Overcast
2:53 PM 28.4 °F 13.5 °F 26.6 °F 93% 30.21 in 10.0 mi ENE 26.5 mph 31.1 mph N/A   Overcast
3:14 PM 28.4 °F 13.5 °F 26.6 °F 93% - 10.0 mi ENE 26.5 mph 34.5 mph N/A   Overcast
3:29 PM 28.4 °F 13.3 °F 26.6 °F 93% 30.20 in 10.0 mi ENE 27.6 mph 32.2 mph N/A   Overcast
3:54 PM 28.4 °F 13.0 °F 26.6 °F 93% 30.21 in 10.0 mi ENE 28.8 mph 32.2 mph N/A   Overcast
4:14 PM 28.4 °F 13.5 °F 26.6 °F 93% 30.22 in 10.0 mi ENE 26.5 mph 29.9 mph N/A   Overcast
4:33 PM 28.4 °F 13.8 °F 26.6 °F 93% 30.22 in 10.0 mi ENE 25.3 mph 28.8 mph N/A   Overcast
4:53 PM 28.4 °F 14.1 °F 26.6 °F 93% 30.21 in 10.0 mi NE 24.2 mph 35.7 mph N/A   Overcast
5:14 PM 30.2 °F 16.2 °F 26.6 °F 86% 30.22 in 10.0 mi ENE 25.3 mph 31.1 mph N/A   Overcast
5:34 PM 30.2 °F 16.5 °F 24.8 °F 80% 30.22 in 10.0 mi ENE 24.2 mph - N/A   Overcast
5:53 PM 30.2 °F 15.4 °F 26.6 °F 86% 30.22 in 10.0 mi ENE 28.8 mph - N/A   Overcast
6:14 PM 30.2 °F 16.2 °F 24.8 °F 80% 30.23 in 10.0 mi ENE 25.3 mph - N/A   Overcast
6:34 PM 30.2 °F 16.5 °F 24.8 °F 80% 30.24 in 10.0 mi ENE 24.2 mph - N/A   Overcast
6:53 PM 30.2 °F 16.5 °F 26.6 °F 86% 30.25 in 10.0 mi ENE 24.2 mph - N/A   Overcast
7:13 PM 30.2 °F 15.7 °F 26.6 °F 86% 30.24 in 10.0 mi ENE 27.6 mph 32.2 mph N/A   Overcast
7:34 PM 30.2 °F 15.7 °F 26.6 °F 86% 30.23 in 10.0 mi ENE 27.6 mph 34.5 mph N/A   Overcast
7:53 PM 30.2 °F 15.9 °F 26.6 °F 86% 30.23 in 10.0 mi East 26.5 mph 31.1 mph N/A   Overcast
8:14 PM 32.0 °F 18.1 °F 26.6 °F 80% 30.23 in 10.0 mi East 27.6 mph - N/A   Overcast
8:33 PM 32.0 °F 17.9 °F 26.6 °F 80% 30.23 in 10.0 mi East 28.8 mph 34.5 mph N/A   Overcast
8:54 PM 32.0 °F 18.9 °F 26.6 °F 80% 30.24 in 10.0 mi East 24.2 mph 32.2 mph N/A   Overcast
9:13 PM 32.0 °F 19.8 °F 26.6 °F 80% 30.25 in 10.0 mi East 20.7 mph 31.1 mph N/A   Overcast
9:34 PM 30.2 °F 17.1 °F 26.6 °F 86% 30.24 in 10.0 mi East 21.9 mph - N/A   Overcast
9:54 PM 30.2 °F 18.9 °F 26.6 °F 86% 30.24 in 10.0 mi East 16.1 mph - N/A   Overcast
10:13 PM 30.2 °F 18.1 °F 26.6 °F 86% 30.24 in 10.0 mi East 18.4 mph - N/A   Overcast
10:34 PM 30.2 °F 17.8 °F 26.6 °F 86% 30.24 in 10.0 mi East 19.6 mph 23.0 mph N/A   Overcast
10:53 PM 30.2 °F 18.5 °F 26.6 °F 86% 30.25 in 10.0 mi East 17.3 mph - N/A   Overcast
11:14 PM 30.2 °F 18.5 °F 26.6 °F 86% 30.25 in 10.0 mi East 17.3 mph - N/A   Overcast
11:34 PM 30.2 °F 16.8 °F 24.8 °F 80% 30.24 in 10.0 mi East 23.0 mph 26.5 mph N/A   Overcast
11:53 PM 30.2 °F 17.4 °F 24.8 °F 80% 30.25 in 10.0 mi East 20.7 mph - N/A   Overcast